Date String (YYYY-MM-DD hh:mm:ss) UTC,Instrument flags,absolute air pressure of the measurement (hPa),sample flow rate (lpm),inlet stack bypass flow (lpm),air temperature of the measurement (°C),ambient temperature measured by the external sensor (°C),aerosol sample conditioner tube jacket temperature (°C),OPC LED temperature (°C),internal box temperature (°C),relative humidity of the measurement (%),span deviation,mass concentration of particles derived from Lorenz-Mie calculation of OPC scattering (μg/m³),mass concentration of particles derived from Lorenz-Mie calculation of OPC scattering (μg/m³),mass concentration of particles derived from Lorenz-Mie calculation of OPC scattering (μg/m³)
DateTimeUTC,F1_M11,P_M11,Q1_M11,Q2_M11,T1_M11,T2_M11,T3_M11,T4_M11,T5_M11,U1_M11,ZSPAN_M11,X0_M11,X2_M11,X1_M11
2024-04-21 02:00:00,SystemResetWarning,0836.7,4.99,000.00,019.5,018.9,000.0,028.1,021.3,022.4,-000.1,0008.94,0006.16,0005.82
2024-04-21 02:01:00,SystemResetWarning,0836.7,4.99,000.00,019.5,018.9,000.0,028.1,021.3,022.4,-000.2,0008.89,0006.13,0005.80
2024-04-21 02:02:00,SystemResetWarning,0836.7,5.00,000.00,019.5,018.9,000.0,028.0,021.3,022.3,0000.2,0008.39,0006.12,0005.79
2024-04-21 02:03:00,SystemResetWarning,0836.8,5.01,000.00,019.5,018.9,000.0,028.0,021.3,022.3,0000.3,0008.33,0006.15,0005.80
2024-04-21 02:04:00,SystemResetWarning,0836.8,5.01,000.00,019.5,018.9,000.0,028.0,021.3,022.4,0000.0,0008.34,0006.16,0005.80
2024-04-21 02:05:00,SystemResetWarning,0836.8,4.99,000.00,019.5,018.9,000.0,028.0,021.3,022.4,0001.0,0008.38,0006.17,0005.79
2024-04-21 02:06:00,SystemResetWarning,0836.8,5.00,000.00,019.5,018.9,000.0,028.0,021.3,022.4,0000.3,0008.36,0006.14,0005.78
2024-04-21 02:07:00,SystemResetWarning,0836.8,5.00,000.00,019.5,018.9,000.0,028.0,021.3,022.3,0000.2,0008.30,0006.10,0005.77
2024-04-21 02:08:00,SystemResetWarning,0836.8,5.01,000.00,019.5,018.9,000.0,028.0,021.3,022.3,0000.8,0008.37,0006.11,0005.76
2024-04-21 02:09:00,SystemResetWarning,0836.9,5.01,000.00,019.5,018.9,000.0,028.0,021.3,022.3,0002.7,0008.40,0006.13,0005.76
2024-04-21 02:10:00,SystemResetWarning,0836.9,5.00,000.00,019.5,018.9,000.0,028.0,021.3,022.3,0002.8,0008.67,0006.14,0005.77
2024-04-21 02:11:00,SystemResetWarning,0836.9,4.99,000.00,019.5,018.9,000.0,028.0,021.2,022.3,0003.2,0008.65,0006.12,0005.76
2024-04-21 02:12:00,SystemResetWarning,0837.0,5.00,000.00,019.5,018.9,000.0,028.0,021.2,022.4,0003.4,0008.70,0006.14,0005.76
2024-04-21 02:13:00,SystemResetWarning,0837.0,5.00,000.00,019.5,018.9,000.0,028.0,021.2,022.4,0003.8,0008.76,0006.16,0005.76
2024-04-21 02:14:00,SystemResetWarning,0837.0,5.01,000.00,019.5,018.9,000.0,028.0,021.2,022.4,0003.7,0008.81,0006.14,0005.76
2024-04-21 02:15:00,SystemResetWarning,0837.0,5.00,000.00,019.5,018.9,000.0,028.0,021.2,022.4,0003.5,0008.89,0006.14,0005.76
2024-04-21 02:16:00,SystemResetWarning,0837.0,5.01,000.00,019.5,018.9,000.0,028.0,021.2,022.4,0003.2,0008.83,0006.13,0005.76
2024-04-21 02:17:00,SystemResetWarning,0837.0,4.99,000.00,019.5,018.9,000.0,028.0,021.3,022.5,0003.4,0008.76,0006.13,0005.76
2024-04-21 02:18:00,SystemResetWarning,0837.0,4.99,000.00,019.5,018.9,000.0,028.0,021.2,022.5,0002.9,0008.79,0006.14,0005.77
2024-04-21 02:19:00,SystemResetWarning,0836.9,4.99,000.00,019.5,018.9,000.0,028.0,021.2,022.4,0002.7,0008.71,0006.13,0005.78
2024-04-21 02:20:00,SystemResetWarning,0837.0,5.00,000.00,019.5,018.9,000.0,028.0,021.2,022.4,0002.1,0008.76,0006.13,0005.78
2024-04-21 02:21:00,SystemResetWarning,0837.0,5.01,000.00,019.5,018.8,000.0,028.0,021.2,022.4,0002.2,0008.55,0006.14,0005.79
2024-04-21 02:22:00,SystemResetWarning,0837.0,5.01,000.00,019.5,018.8,000.0,028.0,021.2,022.4,0002.2,0008.57,0006.19,0005.82
2024-04-21 02:23:00,SystemResetWarning,0837.0,4.99,000.00,019.4,018.8,000.0,028.0,021.2,022.5,0001.9,0008.66,0006.23,0005.84
2024-04-21 02:24:00,SystemResetWarning,0837.1,4.99,000.00,019.4,018.8,000.0,028.0,021.2,023.2,0001.1,0008.77,0006.25,0005.84
2024-04-21 02:25:00,SystemResetWarning,0837.2,4.99,000.00,019.4,018.8,000.0,028.0,021.2,023.5,0000.1,0008.74,0006.28,0005.85
2024-04-21 02:26:00,SystemResetWarning,0837.2,5.00,000.00,019.4,018.8,000.0,028.0,021.2,022.9,0000.4,0008.71,0006.33,0005.88
2024-04-21 02:27:00,SystemResetWarning,0837.2,5.00,000.00,019.4,018.8,000.0,028.0,021.2,022.7,0001.6,0008.72,0006.35,0005.91
2024-04-21 02:28:00,SystemResetWarning,0837.2,5.01,000.00,019.4,018.8,000.0,028.0,021.2,022.6,0000.8,0008.78,0006.38,0005.93
2024-04-21 02:29:00,SystemResetWarning,0837.2,5.01,000.00,019.4,018.8,000.0,028.0,021.2,022.6,0000.3,0008.77,0006.38,0005.93
2024-04-21 02:30:00,SystemResetWarning,0837.2,4.99,000.00,019.4,018.8,000.0,028.0,021.2,022.6,0001.6,0008.81,0006.40,0005.94
2024-04-21 02:31:00,SystemResetWarning,0837.2,4.99,000.00,019.4,018.8,000.0,028.0,021.2,022.6,0001.8,0008.73,0006.38,0005.94
2024-04-21 02:32:00,SystemResetWarning,0837.2,5.00,000.00,019.4,018.8,000.0,028.0,021.2,022.6,0001.5,0008.69,0006.37,0005.93
2024-04-21 02:33:00,SystemResetWarning,0837.2,5.00,000.00,019.4,018.8,000.0,028.0,021.2,022.6,0000.8,0008.70,0006.36,0005.92
2024-04-21 02:34:00,SystemResetWarning,0837.2,5.01,000.00,019.4,018.8,000.0,028.0,021.2,022.6,0001.6,0008.62,0006.32,0005.91
2024-04-21 02:35:00,SystemResetWarning,0837.2,5.01,000.00,019.4,018.8,000.0,028.0,021.2,022.6,0001.7,0008.46,0006.28,0005.90
2024-04-21 02:36:00,SystemResetWarning,0837.2,4.99,000.00,019.4,018.8,000.0,028.0,021.2,022.6,0000.2,0009.06,0006.25,0005.89
2024-04-21 02:37:00,SystemResetWarning,0837.2,4.99,000.00,019.4,018.8,000.0,028.0,021.2,022.5,0000.3,0009.14,0006.22,0005.86
2024-04-21 02:38:00,SystemResetWarning,0837.2,5.00,000.00,019.4,018.8,000.0,028.0,021.2,022.6,0000.0,0009.14,0006.20,0005.84
2024-04-21 02:39:00,SystemResetWarning,0837.2,5.01,000.00,019.4,018.8,000.0,028.0,021.2,022.6,0000.0,0009.16,0006.20,0005.83
2024-04-21 02:40:00,SystemResetWarning,0837.2,5.01,000.00,019.4,018.8,000.0,027.9,021.2,022.6,0000.0,0009.20,0006.21,0005.83
2024-04-21 02:41:00,SystemResetWarning,0837.2,5.00,000.00,019.4,018.8,000.0,028.0,021.2,022.6,0000.0,0009.19,0006.20,0005.83
2024-04-21 02:42:00,SystemResetWarning,0837.2,5.00,000.00,019.4,018.8,000.0,027.9,021.2,022.6,0000.0,0009.91,0006.20,0005.83
2024-04-21 02:43:00,SystemResetWarning,0837.2,4.99,000.00,019.4,018.8,000.0,027.9,021.2,022.5,0000.0,0010.44,0006.23,0005.85
2024-04-21 02:44:00,SystemResetWarning,0837.2,4.99,000.00,019.4,018.8,000.0,027.9,021.2,022.5,0000.3,0010.50,0006.23,0005.87
2024-04-21 02:45:00,SystemResetWarning,0837.2,5.00,000.00,019.4,018.8,000.0,027.9,021.2,022.5,0000.9,0010.72,0006.23,0005.88
2024-04-21 02:46:00,SystemResetWarning,0837.2,5.00,000.00,019.4,018.8,000.0,027.9,021.2,022.6,0000.7,0010.71,0006.23,0005.89
2024-04-21 02:47:00,SystemResetWarning,0837.2,5.00,000.00,019.4,018.8,000.0,027.9,021.2,022.6,0000.9,0010.26,0006.23,0005.89
2024-04-21 02:48:00,SystemResetWarning,0837.2,5.01,000.00,019.4,018.8,000.0,027.9,021.2,022.6,0000.8,0009.92,0006.22,0005.90
2024-04-21 02:49:00,SystemResetWarning,0837.2,5.01,000.00,019.4,018.8,000.0,027.9,021.2,022.5,0000.9,0010.06,0006.20,0005.89
2024-04-21 02:50:00,SystemResetWarning,0837.2,4.99,000.00,019.4,018.8,000.0,027.9,021.2,022.5,0001.2,0010.15,0006.20,0005.91
2024-04-21 02:51:00,SystemResetWarning,0837.2,4.99,000.00,019.4,018.8,000.0,027.9,021.2,022.6,0001.5,0010.16,0006.19,0005.91
2024-04-21 02:52:00,SystemResetWarning,0837.3,5.00,000.00,019.4,018.8,000.0,027.9,021.2,022.6,0001.7,0010.20,0006.20,0005.90
2024-04-21 02:53:00,SystemResetWarning,0837.4,5.01,000.00,019.4,018.8,000.0,027.9,021.2,022.5,0001.7,0009.70,0006.19,0005.90
2024-04-21 02:54:00,SystemResetWarning,0837.4,5.01,000.00,019.4,018.8,000.0,027.9,021.1,022.6,0001.5,0008.96,0006.16,0005.87
2024-04-21 02:55:00,SystemResetWarning,0837.4,5.00,000.00,019.4,018.8,000.0,027.9,021.1,022.6,0001.6,0008.84,0006.12,0005.83
2024-04-21 02:56:00,SystemResetWarning,0837.4,5.00,000.00,019.4,018.8,000.0,027.9,021.2,022.6,0001.6,0008.53,0006.10,0005.81
2024-04-21 02:57:00,SystemResetWarning,0837.4,5.00,000.00,019.4,018.8,000.0,027.9,021.2,022.6,0001.7,0008.55,0006.10,0005.81
2024-04-21 02:58:00,SystemResetWarning,0837.4,4.99,000.00,019.4,018.8,000.0,027.9,021.1,022.5,0001.4,0008.53,0006.09,0005.81
2024-04-21 02:59:00,SystemResetWarning,0837.5,4.99,000.00,019.4,018.8,000.0,027.9,021.1,022.5,0001.4,0008.49,0006.09,0005.82
